Location: Derby
(52.9213°N, 1.4761°W)
Time: 14:58:51
(UTC+01:00)

Explorer 7 - All Passes

Search period start: 18 May 2025 00:00
Search period end: 28 May 2025 00:00
Orbit: 446 x 574 km, 50.3° (Epoch: 17 May)

Date Brightness Start Highest point End Pass type
(mag) Time Alt. Az. Time Alt. Az. Time Alt. Az.
18 May - 03:53:22 10° S 03:55:26 14° SE 03:57:34 10° ESE visible
18 May - 05:29:58 10° SW 05:33:36 40° SSE 05:37:23 10° E daylight
18 May - 07:08:22 10° W 07:12:16 60° S 07:16:20 10° E daylight
18 May - 08:47:09 10° W 08:50:57 40° SSW 08:54:52 10° SE daylight
18 May - 10:26:51 10° WSW 10:29:12 15° SW 10:31:34 10° S daylight
19 May - 03:34:38 10° S 03:36:50 15° SE 03:39:05 10° ESE visible
19 May - 05:11:25 10° SW 05:15:02 41° SSE 05:18:49 10° E daylight
19 May - 06:49:49 10° W 06:53:41 60° S 06:57:44 10° ESE daylight
19 May - 08:28:36 10° W 08:32:21 38° SSW 08:36:14 10° SE daylight
19 May - 10:08:26 10° WSW 10:10:35 14° SW 10:12:45 10° S daylight
20 May - 03:15:55 10° S 03:18:13 16° SE 03:20:35 10° ESE visible
20 May - 04:52:49 10° SW 04:56:26 43° SSE 05:00:13 10° E daylight
20 May - 06:31:15 10° W 06:35:06 60° S 06:39:08 10° ESE daylight
20 May - 08:10:03 10° W 08:13:45 37° SSW 08:17:35 10° SE daylight
20 May - 09:50:02 10° WSW 09:51:57 13° SW 09:53:52 10° SSW daylight
21 May - 02:57:10 10° S 02:59:35 16° SE 03:02:03 10° ESE visible
21 May - 04:34:13 10° SW 04:37:49 44° SSE 04:41:36 10° E daylight
21 May - 06:12:40 10° W 06:16:30 59° S 06:20:30 10° ESE daylight
21 May - 07:51:29 10° W 07:55:08 35° SSW 07:58:54 10° SE daylight
21 May - 09:31:40 10° WSW 09:33:17 12° SW 09:34:55 10° SSW daylight
22 May - 02:38:26 10° S 02:40:56 17° SE 02:43:29 10° ESE visible
22 May - 04:15:36 10° WSW 04:19:12 45° SSE 04:22:58 10° E daylight
22 May - 05:54:05 10° W 05:57:52 58° S 06:01:51 10° ESE daylight
22 May - 07:32:53 10° W 07:36:29 33° SSW 07:40:12 10° SE daylight
22 May - 09:13:22 10° WSW 09:14:36 11° SW 09:15:53 10° SSW daylight
23 May - 02:19:42 10° S 02:22:16 18° SE 02:24:54 10° E visible
23 May - 03:56:58 10° WSW 04:00:33 46° SSE 04:04:19 10° E visible
23 May - 05:35:28 10° W 05:39:14 58° S 05:43:10 10° ESE daylight
23 May - 07:14:17 10° W 07:17:49 32° SSW 07:21:29 10° SE daylight
23 May - 08:55:14 10° SW 08:55:55 10° SW 08:56:36 10° SSW daylight
24 May - 02:00:56 10° SSW 02:03:35 19° SE 02:06:17 10° E visible
24 May - 03:38:18 10° WSW 03:41:53 47° SSE 03:45:38 10° E visible
24 May - 05:16:49 10° W 05:20:34 57° S 05:24:29 10° ESE daylight
24 May - 06:55:40 10° W 06:59:08 31° SSW 07:02:44 10° SE daylight
25 May - 01:42:11 10° SSW 01:44:53 20° SSE 01:47:39 10° E visible
25 May - 03:19:38 10° WSW 03:23:12 48° SSE 03:26:57 10° E visible
25 May - 04:58:10 10° W 05:01:53 56° S 05:05:47 10° ESE daylight
25 May - 06:37:01 10° W 06:40:27 29° SSW 06:43:58 10° SE daylight
26 May - 01:23:24 10° SSW 01:26:10 21° SSE 01:29:00 10° E visible
26 May - 03:00:57 10° WSW 03:04:31 49° SSE 03:08:14 10° E visible
26 May - 04:39:30 10° W 04:43:11 55° S 04:47:03 10° ESE daylight
26 May - 06:18:23 10° W 06:21:43 28° SSW 06:25:10 10° SSE daylight
27 May - 01:04:37 10° SSW 01:07:25 21° SSE 01:10:19 10° E visible
27 May - 02:42:15 10° WSW 02:45:48 50° SSE 02:49:30 10° E visible
27 May - 04:20:48 10° W 04:24:28 54° S 04:28:18 10° ESE daylight
27 May - 05:59:42 10° W 06:02:59 26° SSW 06:06:21 10° SSE daylight
